| time (UTC) | temp F | wind direction | speed knots | gust knots | rain 1hr in | rain 24hr in | rain mn in | humidity % | barometer mb |
| 20260506221400 | 64 | 0.0 | 0.0 | 0.00 | 0.00 | 0.00 | 31 | 1006.1 | |
| 20260506215718 | 64 | 0.0 | 0.0 | 0.00 | 0.00 | 0.00 | 31 | 1005.5 | |
| 20260506214043 | 64 | 0.0 | 0.0 | 0.00 | 0.00 | 0.00 | 31 | 1005.4 | |
| 20260506212408 | 65 | 0.0 | 0.0 | 0.00 | 0.00 | 0.00 | 32 | 1005.3 | |
| 20260506205105 | 65 | 0.0 | 0.0 | 0.00 | 0.00 | 0.00 | 31 | 1005.3 | |
| 20260506203422 | 66 | 0.0 | 0.0 | 0.00 | 0.00 | 0.00 | 32 | 1005.2 | |
| 20260506192810 | 68 | 0.0 | 0.0 | 0.00 | 0.00 | 0.00 | 32 | 1004.8 | |
| 20260506183817 | 70 | 0.0 | 0.0 | 0.00 | 0.00 | 0.00 | 31 | 1004.7 | |
| 20260506180507 | 72 | 0.0 | 0.0 | 0.00 | 0.00 | 0.00 | 31 | 1004.0 | |
| 20260506171522 | 76 | 0.0 | 0.0 | 0.00 | 0.00 | 0.00 | 30 | 1004.1 | |
| 20260506162537 | 79 | 0.0 | 0.0 | 0.00 | 0.00 | 0.00 | 28 | 1004.4 | |
| 20260506160902 | 80 | 0.0 | 0.0 | 0.00 | 0.00 | 0.00 | 28 | 1004.6 | |
| 20260506151924 | 84 | 0.0 | 0.0 | 0.00 | 0.00 | 0.00 | 26 | 1005.1 | |
| 20260506150242 | 86 | 0.0 | 0.0 | 0.00 | 0.00 | 0.00 | 25 | 1005.4 | |
| 20260506144614 | 86 | 0.0 | 0.0 | 0.00 | 0.00 | 0.00 | 26 | 1005.5 | |
| 20260506135629 | 87 | 0.0 | 0.0 | 0.00 | 0.00 | 0.00 | 25 | 1006.1 | |
| 20260506133954 | 87 | 0.0 | 0.0 | 0.00 | 0.00 | 0.00 | 25 | 1006.1 | |
| 20260506130644 | 88 | 0.0 | 0.0 | 0.00 | 0.00 | 0.00 | 25 | 1006.5 | |
| 20260506123326 | 87 | 0.0 | 0.0 | 0.00 | 0.00 | 0.00 | 28 | 1007.1 | |
| 20260506121659 | 90 | 0.0 | 0.0 | 0.00 | 0.00 | 0.00 | 25 | 1007.1 | |
| 20260506120024 | 92 | 0.0 | 0.0 | 0.00 | 0.00 | 0.00 | 25 | 1007.1 | |
| 20260506114349 | 95 | 0.0 | 0.0 | 0.00 | 0.00 | 0.00 | 23 | 1007.0 | |
| 20260506111039 | 94 | 0.0 | 0.0 | 0.00 | 0.00 | 0.00 | 23 | 1007.3 | |
| 20260506105356 | 96 | 0.0 | 0.0 | 0.00 | 0.00 | 0.00 | 23 | 1007.5 | |
| 20260506102046 | 100 | 0.0 | 0.0 | 0.00 | 0.00 | 0.00 | 20 | 1007.8 | |
| 20260506094744 | 103 | 0.0 | 0.0 | 0.00 | 0.00 | 0.00 | 19 | 1008.0 | |
| 20260506093109 | 104 | 0.0 | 0.0 | 0.00 | 0.00 | 0.00 | 18 | 1007.9 | |
| 20260506084123 | 103 | 0.0 | 0.0 | 0.00 | 0.00 | 0.00 | 17 | 1008.2 | |
| 20260506082448 | 103 | 0.0 | 0.0 | 0.00 | 0.00 | 0.00 | 17 | 1008.4 | |
| 20260506070153 | 95 | 0.0 | 0.0 | 0.00 | 0.00 | 0.00 | 17 | 1008.4 | |
| 20260506061208 | 86 | 0.0 | 0.0 | 0.00 | 0.00 | 0.00 | 18 | 1008.2 | |
| 20260506050548 | 70 | 0.0 | 0.0 | 0.00 | 0.00 | 0.00 | 21 | 1008.1 | |
| 20260506044905 | 65 | 0.0 | 0.0 | 0.00 | 0.00 | 0.00 | 23 | 1007.9 | |
| 20260506043238 | 62 | 0.0 | 0.0 | 0.00 | 0.00 | 0.00 | 24 | 1007.9 | |
| 20260506041603 | 56 | 0.0 | 0.0 | 0.00 | 0.00 | 0.00 | 28 | 1007.7 | |
| 20260506035920 | 53 | 0.0 | 0.0 | 0.00 | 0.00 | 0.00 | 30 | 1007.8 | |
| 20260506034245 | 52 | 0.0 | 0.0 | 0.00 | 0.00 | 0.00 | 31 | 1007.5 | |
| 20260506032610 | 53 | 0.0 | 0.0 | 0.00 | 0.00 | 0.00 | 31 | 1007.5 | |
| 20260506030935 | 53 | 0.0 | 0.0 | 0.00 | 0.00 | 0.00 | 31 | 1007.3 | |
| 20260506025300 | 54 | 0.0 | 0.0 | 0.00 | 0.00 | 0.00 | 31 | 1007.2 | |
| 20260506023625 | 55 | 0.0 | 0.0 | 0.00 | 0.00 | 0.00 | 31 | 1007.2 | |
| 20260506021957 | 56 | 0.0 | 0.0 | 0.00 | 0.00 | 0.00 | 30 | 1007.2 | |
| 20260506020315 | 57 | 0.0 | 0.0 | 0.00 | 0.00 | 0.00 | 30 | 1007.0 | |
| 20260506014648 | 58 | 0.0 | 0.0 | 0.00 | 0.00 | 0.00 | 30 | 1006.8 | |
| 20260506013013 | 58 | 0.0 | 0.0 | 0.00 | 0.00 | 0.00 | 29 | 1006.5 | |
| 20260506011330 | 58 | 0.0 | 0.0 | 0.00 | 0.00 | 0.00 | 30 | 1006.5 | |
| 20260506005655 | 58 | 0.0 | 0.0 | 0.00 | 0.00 | 0.00 | 30 | 1006.4 | |
| 20260506004020 | 58 | 0.0 | 0.0 | 0.00 | 0.00 | 0.00 | 30 | 1006.2 | |
| 20260506002345 | 59 | 0.0 | 0.0 | 0.00 | 0.00 | 0.00 | 30 | 1006.2 | |
| 20260506000710 | 60 | 0.0 | 0.0 | 0.00 | 0.00 | 0.00 | 30 | 1006.2 | |
| 20260505235035 | 60 | 0.0 | 0.0 | 0.00 | 0.00 | 0.00 | 30 | 1005.9 | |
| 20260505231725 | 61 | 0.0 | 0.0 | 0.00 | 0.00 | 0.00 | 30 | 1005.7 |